Airfield :
LOGIN :

Register | Disclaimer

   EN    FR    IT 

 










Legend :    VFR   Marginal VFR   IFR   Intensive IFR   Very Intensive IFR
Visi :
Ceiling :
>= 8 km
>= 3000ft
5 to 8 km
1000 to 3000 ft
1500m to 5 km
500 to 1000 ft
800 to 1500m
200 to 500 ft
< 800m
< 200 ft
Symbols :   Thunderstorms  Fog  Heavy snow  Heavy precipitations  Wind > 20 kt
SIGMETs :     Misc.  Thunderstorms  Icing  Turbulence  Mountain Waves  Volcanic Ashes






- Airport Elevation : 609 ft
- IATA code : BJZ


LEBZ - Badajoz

CURRENT METAR :
  • 271330Z 24002KT CAVOK 26/09 Q1022

EXPIRED METARs :
  • 271300Z 32003KT CAVOK 26/10 Q1022
  • 271230Z 19001KT CAVOK 25/12 Q1023
  • 271200Z 26003KT CAVOK 25/13 Q1023
  • 271130Z 23003KT CAVOK 24/13 Q1023
  • 271100Z 26003KT CAVOK 24/13 Q1023

TAF TAF LEBZ
Valid from the 27 at 09:00 until the 28 at 09:00 UTC


270800Z 2709/2809 28005KT CAVOK TX28/2715Z TN15/2806Z
PROB30
TEMPO 2800/2808 4000 BR



MET'MAP, your aeronautical weather chart ! - Copyright ORBIFLY December 2007 - Disclaimer

ORBIFLY MET'MAP TEAM :

Programming & Development : Alexandra Zaïnal
Concept & original design : Baudouin d'Aumeries
Assistance for programming : Marc-Olivier Méhu
Technical & hardware support : Manuel Goepfert

Contact : metmap@orbifly.com




SOURCES & CREDITS :

   NOAA